Time,TemperatureF,DewpointF,PressureIn,WindDirection,WindDirectionDegrees,WindSpeedMPH,WindSpeedGustMPH,Humidity,HourlyPrecipIn,Conditions,Clouds,dailyrainin,SoftwareType,DateUTC
2013-03-29 00:02:00,55.6,42.3,30.17,East,94,1.0,5.0,61,0.00,CLR,SKC,0.00,WeatherDisplay:10.37,2013-03-29 05:02:00,
2013-03-29 00:07:00,55.6,42.4,30.17,ENE,77,0.0,3.0,61,0.00,CLR,SKC,0.00,WeatherDisplay:10.37,2013-03-29 05:07:00,
2013-03-29 00:12:00,55.5,42.3,30.17,East,86,2.0,3.0,61,0.00,CLR,SKC,0.00,WeatherDisplay:10.37,2013-03-29 05:12:00,
2013-03-29 00:17:00,55.4,42.2,30.16,ESE,105,0.0,8.0,61,0.00,CLR,SKC,0.00,WeatherDisplay:10.37,2013-03-29 05:17:00,
2013-03-29 00:22:00,55.3,42.1,30.16,ESE,123,6.0,7.0,61,0.00,CLR,SKC,0.00,WeatherDisplay:10.37,2013-03-29 05:22:00,
2013-03-29 00:27:00,55.2,42.0,30.15,ESE,122,3.0,8.0,61,0.00,CLR,SKC,0.00,WeatherDisplay:10.37,2013-03-29 05:27:00,
2013-03-29 00:32:00,55.0,41.8,30.15,ESE,117,1.0,5.0,61,0.00,CLR,SKC,0.00,WeatherDisplay:10.37,2013-03-29 05:32:00,
2013-03-29 00:37:00,54.7,41.9,30.15,ESE,104,1.0,3.0,62,0.00,CLR,SKC,0.00,WeatherDisplay:10.37,2013-03-29 05:37:00,
2013-03-29 00:42:00,54.4,41.7,30.15,ESE,104,0.0,3.0,62,0.00,CLR,SKC,0.00,WeatherDisplay:10.37,2013-03-29 05:42:00,
2013-03-29 00:52:00,53.9,41.6,30.15,ESE,120,0.0,3.0,63,0.00,CLR,SKC,0.00,WeatherDisplay:10.37,2013-03-29 05:52:00,
2013-03-29 00:57:00,53.7,41.8,30.15,ESE,106,0.0,3.0,64,0.00,CLR,SKC,0.00,WeatherDisplay:10.37,2013-03-29 05:57:00,
2013-03-29 01:07:00,53.4,41.6,30.15,ESE,111,0.0,3.0,64,0.00,CLR,SKC,0.00,WeatherDisplay:10.37,2013-03-29 06:07:00,
2013-03-29 01:12:00,53.2,41.8,30.16,East,89,2.0,5.0,65,0.00,CLR,SKC,0.00,WeatherDisplay:10.37,2013-03-29 06:12:00,
2013-03-29 01:17:00,53.1,41.7,30.16,ENE,71,5.0,7.0,65,0.00,CLR,SKC,0.00,WeatherDisplay:10.37,2013-03-29 06:17:00,
2013-03-29 01:22:00,52.9,41.9,30.16,ENE,73,1.0,5.0,66,0.00,CLR,SKC,0.00,WeatherDisplay:10.37,2013-03-29 06:22:00,
2013-03-29 01:32:00,52.4,42.1,30.16,NE,48,5.0,10.0,68,0.00,CLR,SKC,0.00,WeatherDisplay:10.37,2013-03-29 06:32:00,
2013-03-29 01:37:00,52.1,42.3,30.16,ENE,67,5.0,7.0,69,0.00,CLR,SKC,0.00,WeatherDisplay:10.37,2013-03-29 06:37:00,
2013-03-29 01:42:00,51.8,42.4,30.16,ENE,77,0.0,3.0,70,0.00,CLR,SKC,0.00,WeatherDisplay:10.37,2013-03-29 06:42:00,
2013-03-29 01:47:00,51.5,42.4,30.16,East,94,2.0,7.0,71,0.00,CLR,SKC,0.00,WeatherDisplay:10.37,2013-03-29 06:47:00,
2013-03-29 01:52:00,51.2,42.5,30.16,ESE,107,5.0,12.0,72,0.00,CLR,SKC,0.00,WeatherDisplay:10.37,2013-03-29 06:52:00,
2013-03-29 01:57:00,50.9,42.6,30.16,SE,124,3.0,10.0,73,0.00,CLR,SKC,0.00,WeatherDisplay:10.37,2013-03-29 06:57:00,
2013-03-29 02:02:00,50.8,42.8,30.17,ESE,121,2.0,5.0,74,0.00,CLR,SKC,0.00,WeatherDisplay:10.37,2013-03-29 07:02:00,
2013-03-29 02:07:00,50.6,42.7,30.16,SE,132,0.0,7.0,74,0.00,CLR,SKC,0.00,WeatherDisplay:10.37,2013-03-29 07:07:00,
2013-03-29 02:17:00,50.2,42.6,30.17,ESE,117,1.0,5.0,75,0.00,CLR,SKC,0.00,WeatherDisplay:10.37,2013-03-29 07:17:00,
2013-03-29 02:22:00,49.9,42.7,30.16,ESE,119,0.0,5.0,76,0.00,CLR,SKC,0.00,WeatherDisplay:10.37,2013-03-29 07:22:00,
2013-03-29 02:27:00,49.6,42.7,30.16,ESE,110,0.0,5.0,77,0.00,CLR,SKC,0.00,WeatherDisplay:10.37,2013-03-29 07:27:00,
2013-03-29 02:32:00,49.3,42.4,30.16,ENE,69,0.0,5.0,77,0.00,CLR,SKC,0.00,WeatherDisplay:10.37,2013-03-29 07:32:00,
2013-03-29 02:37:00,49.1,42.6,30.16,ESE,122,0.0,5.0,78,0.00,CLR,SKC,0.00,WeatherDisplay:10.37,2013-03-29 07:37:00,
2013-03-29 02:42:00,49.0,42.4,30.16,SE,135,1.0,5.0,78,0.00,CLR,SKC,0.00,WeatherDisplay:10.37,2013-03-29 07:42:00,
2013-03-29 02:47:00,48.8,42.3,30.15,ESE,117,1.0,5.0,78,0.00,CLR,SKC,0.00,WeatherDisplay:10.37,2013-03-29 07:47:00,
2013-03-29 02:52:00,48.6,42.4,30.15,ESE,104,1.0,6.0,79,0.00,CLR,SKC,0.00,WeatherDisplay:10.37,2013-03-29 07:52:00,
2013-03-29 02:57:00,48.4,42.1,30.15,ENE,65,0.0,6.0,79,0.00,CLR,SKC,0.00,WeatherDisplay:10.37,2013-03-29 07:57:00,
2013-03-29 03:02:00,48.2,42.3,30.14,ENE,72,2.0,7.0,80,0.00,CLR,SKC,0.00,WeatherDisplay:10.37,2013-03-29 08:02:00,
2013-03-29 03:07:00,48.1,42.2,30.15,ENE,71,5.0,8.0,80,0.00,CLR,SKC,0.00,WeatherDisplay:10.37,2013-03-29 08:07:00,
2013-03-29 03:12:00,48.0,42.1,30.15,ENE,76,5.0,7.0,80,0.00,CLR,SKC,0.00,WeatherDisplay:10.37,2013-03-29 08:12:00,
2013-03-29 03:17:00,47.9,42.0,30.15,East,79,3.0,10.0,80,0.00,CLR,SKC,0.00,WeatherDisplay:10.37,2013-03-29 08:17:00,
2013-03-29 03:22:00,47.8,41.9,30.15,NE,37,5.0,10.0,80,0.00,CLR,SKC,0.00,WeatherDisplay:10.37,2013-03-29 08:22:00,
2013-03-29 03:27:00,47.6,41.8,30.15,NE,56,1.0,8.0,80,0.00,CLR,SKC,0.00,WeatherDisplay:10.37,2013-03-29 08:27:00,
2013-03-29 03:32:00,47.4,41.6,30.15,ENE,75,1.0,7.0,80,0.00,CLR,SKC,0.00,WeatherDisplay:10.37,2013-03-29 08:32:00,
2013-03-29 03:37:00,47.2,41.7,30.14,East,91,1.0,3.0,81,0.00,CLR,SKC,0.00,WeatherDisplay:10.37,2013-03-29 08:37:00,
2013-03-29 03:42:00,47.0,41.5,30.14,East,84,2.0,7.0,81,0.00,CLR,SKC,0.00,WeatherDisplay:10.37,2013-03-29 08:42:00,
2013-03-29 03:47:00,46.7,41.2,30.14,ENE,74,1.0,10.0,81,0.00,CLR,SKC,0.00,WeatherDisplay:10.37,2013-03-29 08:47:00,
2013-03-29 03:52:00,46.6,41.4,30.14,East,85,2.0,7.0,82,0.00,CLR,SKC,0.00,WeatherDisplay:10.37,2013-03-29 08:52:00,
2013-03-29 03:57:00,46.5,41.0,30.14,East,85,1.0,5.0,81,0.00,CLR,SKC,0.00,WeatherDisplay:10.37,2013-03-29 08:57:00,
2013-03-29 04:02:00,46.4,40.9,30.14,East,100,1.0,5.0,81,0.00,CLR,SKC,0.00,WeatherDisplay:10.37,2013-03-29 09:02:00,
2013-03-29 04:07:00,46.3,40.8,30.14,ESE,106,2.0,5.0,81,0.00,CLR,SKC,0.00,WeatherDisplay:10.37,2013-03-29 09:07:00,
2013-03-29 04:12:00,46.3,40.8,30.14,SE,131,1.0,5.0,81,0.00,CLR,SKC,0.00,WeatherDisplay:10.37,2013-03-29 09:12:00,
2013-03-29 04:17:00,46.2,40.7,30.14,ESE,121,0.0,5.0,81,0.00,CLR,SKC,0.00,WeatherDisplay:10.37,2013-03-29 09:17:00,
2013-03-29 04:22:00,46.1,40.5,30.14,ESE,115,0.0,2.0,81,0.00,CLR,SKC,0.00,WeatherDisplay:10.37,2013-03-29 09:22:00,
2013-03-29 04:27:00,45.8,40.6,30.15,ESE,116,0.0,1.0,82,0.00,CLR,SKC,0.00,WeatherDisplay:10.37,2013-03-29 09:27:00,
2013-03-29 04:32:00,45.5,40.4,30.15,ESE,115,0.0,0.0,82,0.00,CLR,SKC,0.00,WeatherDisplay:10.37,2013-03-29 09:32:00,
2013-03-29 04:37:00,45.3,40.4,30.15,ESE,115,0.0,0.0,83,0.00,CLR,SKC,0.00,WeatherDisplay:10.37,2013-03-29 09:37:00,
2013-03-29 04:42:00,45.1,40.2,30.15,ESE,115,0.0,2.0,83,0.00,CLR,SKC,0.00,WeatherDisplay:10.37,2013-03-29 09:42:00,
2013-03-29 04:47:00,45.0,40.2,30.15,ESE,104,1.0,3.0,83,0.00,CLR,SKC,0.00,WeatherDisplay:10.37,2013-03-29 09:47:00,
2013-03-29 04:52:00,44.9,40.1,30.15,ENE,76,0.0,2.0,83,0.00,CLR,SKC,0.00,WeatherDisplay:10.37,2013-03-29 09:52:00,
2013-03-29 05:02:00,44.7,40.2,30.15,ESE,105,1.0,3.0,84,0.00,CLR,SKC,0.00,WeatherDisplay:10.37,2013-03-29 10:02:00,
2013-03-29 05:07:00,44.6,40.1,30.15,ESE,108,1.0,3.0,84,0.00,CLR,SKC,0.00,WeatherDisplay:10.37,2013-03-29 10:07:00,
2013-03-29 05:12:00,44.7,40.2,30.15,East,99,2.0,8.0,84,0.00,CLR,SKC,0.00,WeatherDisplay:10.37,2013-03-29 10:12:00,
2013-03-29 05:17:00,44.6,39.8,30.15,East,96,1.0,5.0,83,0.00,CLR,SKC,0.00,WeatherDisplay:10.37,2013-03-29 10:17:00,
2013-03-29 05:22:00,44.6,39.8,30.16,East,97,1.0,5.0,83,0.00,CLR,SKC,0.00,WeatherDisplay:10.37,2013-03-29 10:22:00,
2013-03-29 05:27:00,44.5,39.7,30.15,ESE,105,0.0,3.0,83,0.00,CLR,SKC,0.00,WeatherDisplay:10.37,2013-03-29 10:27:00,
2013-03-29 05:32:00,44.3,39.5,30.16,ESE,115,0.0,3.0,83,0.00,CLR,SKC,0.00,WeatherDisplay:10.37,2013-03-29 10:32:00,
2013-03-29 05:42:00,44.0,39.5,30.16,ESE,116,0.0,3.0,84,0.00,CLR,SKC,0.00,WeatherDisplay:10.37,2013-03-29 10:42:00,
2013-03-29 05:47:00,43.9,39.4,30.16,ESE,107,1.0,3.0,84,0.00,CLR,SKC,0.00,WeatherDisplay:10.37,2013-03-29 10:47:00,
2013-03-29 05:52:00,43.8,39.3,30.16,East,96,0.0,3.0,84,0.00,CLR,SKC,0.00,WeatherDisplay:10.37,2013-03-29 10:52:00,
2013-03-29 05:57:00,43.7,39.2,30.16,ESE,109,0.0,3.0,84,0.00,CLR,SKC,0.00,WeatherDisplay:10.37,2013-03-29 10:57:00,
2013-03-29 06:02:00,43.5,39.3,30.16,ESE,107,1.0,2.0,85,0.00,CLR,SKC,0.00,WeatherDisplay:10.37,2013-03-29 11:02:00,
2013-03-29 06:12:00,43.5,39.0,30.16,East,89,1.0,5.0,84,0.00,CLR,SKC,0.00,WeatherDisplay:10.37,2013-03-29 11:12:00,
2013-03-29 06:17:00,43.5,39.3,30.17,East,93,1.0,5.0,85,0.00,CLR,SKC,0.00,WeatherDisplay:10.37,2013-03-29 11:17:00,
2013-03-29 06:22:00,43.5,39.3,30.17,ESE,107,1.0,7.0,85,0.00,CLR,SKC,0.00,WeatherDisplay:10.37,2013-03-29 11:22:00,
2013-03-29 06:27:00,43.4,39.2,30.17,ESE,112,1.0,3.0,85,0.00,CLR,SKC,0.00,WeatherDisplay:10.37,2013-03-29 11:27:00,
2013-03-29 06:32:00,43.3,39.1,30.17,East,99,0.0,6.0,85,0.00,CLR,SKC,0.00,WeatherDisplay:10.37,2013-03-29 11:32:00,
2013-03-29 06:42:00,43.1,38.9,30.17,East,90,1.0,5.0,85,0.00,CLR,SKC,0.00,WeatherDisplay:10.37,2013-03-29 11:42:00,
2013-03-29 06:52:00,43.0,38.8,30.17,East,88,2.0,7.0,85,0.00,CLR,SKC,0.00,WeatherDisplay:10.37,2013-03-29 11:52:00,
2013-03-29 06:57:00,42.9,38.7,30.17,East,97,1.0,7.0,85,0.00,CLR,SKC,0.00,WeatherDisplay:10.37,2013-03-29 11:57:00,
2013-03-29 07:02:00,42.8,38.9,30.17,SE,128,1.0,5.0,86,0.00,CLR,SKC,0.00,WeatherDisplay:10.37,2013-03-29 12:02:00,
2013-03-29 07:07:00,42.7,38.8,30.17,East,98,5.0,10.0,86,0.00,CLR,SKC,0.00,WeatherDisplay:10.37,2013-03-29 12:07:00,
2013-03-29 07:17:00,42.5,38.6,30.18,ESE,107,1.0,7.0,86,0.00,CLR,SKC,0.00,WeatherDisplay:10.37,2013-03-29 12:17:00,
2013-03-29 07:22:00,42.5,38.6,30.18,East,96,2.0,3.0,86,0.00,CLR,SKC,0.00,WeatherDisplay:10.37,2013-03-29 12:22:00,
2013-03-29 07:32:00,42.6,38.7,30.18,ESE,114,1.0,5.0,86,0.00,CLR,SKC,0.00,WeatherDisplay:10.37,2013-03-29 12:32:00,
2013-03-29 07:42:00,43.0,38.8,30.19,SE,139,0.0,5.0,85,0.00,CLR,SKC,0.00,WeatherDisplay:10.37,2013-03-29 12:42:00,
2013-03-29 07:47:00,43.1,38.9,30.19,SE,137,1.0,3.0,85,0.00,CLR,SKC,0.00,WeatherDisplay:10.37,2013-03-29 12:47:00,
2013-03-29 07:52:00,43.2,38.7,30.19,ESE,114,0.0,6.0,84,0.00,CLR,SKC,0.00,WeatherDisplay:10.37,2013-03-29 12:52:00,
2013-03-29 08:02:00,43.6,39.1,30.19,East,83,1.0,8.0,84,0.00,CLR,SKC,0.00,WeatherDisplay:10.37,2013-03-29 13:02:00,
2013-03-29 08:07:00,43.9,39.1,30.19,East,86,2.0,5.0,83,0.00,CLR,SKC,0.00,WeatherDisplay:10.37,2013-03-29 13:07:00,
2013-03-29 08:12:00,44.1,39.0,30.19,ENE,70,3.0,8.0,82,0.00,CLR,SKC,0.00,WeatherDisplay:10.37,2013-03-29 13:12:00,
2013-03-29 08:17:00,44.3,39.2,30.20,East,90,5.0,8.0,82,0.00,CLR,SKC,0.00,WeatherDisplay:10.37,2013-03-29 13:17:00,
2013-03-29 08:22:00,44.5,39.4,30.20,East,90,1.0,7.0,82,0.00,CLR,SKC,0.00,WeatherDisplay:10.37,2013-03-29 13:22:00,
2013-03-29 08:27:00,45.0,39.5,30.20,East,86,0.0,5.0,81,0.00,CLR,SKC,0.00,WeatherDisplay:10.37,2013-03-29 13:27:00,
2013-03-29 08:32:00,45.4,39.6,30.20,East,93,1.0,5.0,80,0.00,CLR,SKC,0.00,WeatherDisplay:10.37,2013-03-29 13:32:00,
2013-03-29 08:42:00,45.7,39.5,30.20,East,90,5.0,8.0,79,0.00,CLR,SKC,0.00,WeatherDisplay:10.37,2013-03-29 13:42:00,
2013-03-29 08:52:00,46.6,40.1,30.20,East,90,2.0,5.0,78,0.00,CLR,SKC,0.00,WeatherDisplay:10.37,2013-03-29 13:52:00,
2013-03-29 08:57:00,47.1,40.6,30.20,ESE,109,2.0,6.0,78,0.00,CLR,SKC,0.00,WeatherDisplay:10.37,2013-03-29 13:57:00,
2013-03-29 09:07:00,48.2,40.9,30.20,ESE,119,3.0,8.0,76,0.00,CLR,SKC,0.00,WeatherDisplay:10.37,2013-03-29 14:07:00,
2013-03-29 09:12:00,48.6,41.0,30.20,ESE,114,2.0,7.0,75,0.00,CLR,SKC,0.00,WeatherDisplay:10.37,2013-03-29 14:12:00,
2013-03-29 09:17:00,49.3,41.7,30.20,ESE,121,3.0,8.0,75,0.00,CLR,SKC,0.00,WeatherDisplay:10.37,2013-03-29 14:17:00,
2013-03-29 09:22:00,49.7,41.7,30.20,SE,126,1.0,7.0,74,0.00,CLR,SKC,0.00,WeatherDisplay:10.37,2013-03-29 14:22:00,
2013-03-29 09:27:00,50.0,42.0,30.20,ESE,110,3.0,8.0,74,0.00,CLR,SKC,0.00,WeatherDisplay:10.37,2013-03-29 14:27:00,
2013-03-29 09:32:00,50.2,41.9,30.20,ESE,113,2.0,7.0,73,0.00,CLR,SKC,0.00,WeatherDisplay:10.37,2013-03-29 14:32:00,
2013-03-29 09:37:00,50.7,42.3,30.20,ESE,111,3.0,7.0,73,0.00,CLR,SKC,0.00,WeatherDisplay:10.37,2013-03-29 14:37:00,
2013-03-29 09:42:00,51.1,42.4,30.20,East,84,6.0,12.0,72,0.00,CLR,SKC,0.00,WeatherDisplay:10.37,2013-03-29 14:42:00,
2013-03-29 09:47:00,51.3,42.2,30.20,East,101,3.0,10.0,71,0.00,CLR,SKC,0.00,WeatherDisplay:10.37,2013-03-29 14:47:00,
2013-03-29 09:52:00,52.0,43.3,30.20,ESE,122,2.0,7.0,72,0.00,CLR,SKC,0.00,WeatherDisplay:10.37,2013-03-29 14:52:00,
2013-03-29 09:57:00,52.8,43.3,30.20,ESE,114,2.0,8.0,70,0.00,CLR,SKC,0.00,WeatherDisplay:10.37,2013-03-29 14:57:00,
2013-03-29 10:02:00,53.1,43.2,30.20,ENE,77,1.0,11.0,69,0.00,CLR,SKC,0.00,WeatherDisplay:10.37,2013-03-29 15:02:00,
2013-03-29 10:07:00,53.6,43.7,30.20,East,86,2.0,7.0,69,0.00,CLR,SKC,0.00,WeatherDisplay:10.37,2013-03-29 15:07:00,
2013-03-29 10:12:00,54.2,43.5,30.19,ESE,105,2.0,8.0,67,0.00,CLR,SKC,0.00,WeatherDisplay:10.37,2013-03-29 15:12:00,
2013-03-29 10:17:00,54.8,43.6,30.20,ESE,114,3.0,7.0,66,0.00,CLR,SKC,0.00,WeatherDisplay:10.37,2013-03-29 15:17:00,
2013-03-29 10:27:00,55.7,43.3,30.19,SE,129,5.0,8.0,63,0.00,CLR,SKC,0.00,WeatherDisplay:10.37,2013-03-29 15:27:00,
2013-03-29 10:32:00,56.0,43.1,30.19,SE,133,8.0,13.0,62,0.00,CLR,SKC,0.00,WeatherDisplay:10.37,2013-03-29 15:32:00,
2013-03-29 10:47:00,57.0,43.2,30.19,SE,126,5.0,8.0,60,0.00,CLR,SKC,0.00,WeatherDisplay:10.37,2013-03-29 15:47:00,
2013-03-29 10:52:00,57.3,43.0,30.20,ESE,105,5.0,10.0,59,0.00,CLR,SKC,0.00,WeatherDisplay:10.37,2013-03-29 15:52:00,
2013-03-29 11:02:00,58.1,42.9,30.20,ESE,102,5.0,15.0,57,0.00,CLR,SKC,0.00,WeatherDisplay:10.37,2013-03-29 16:02:00,
2013-03-29 11:07:00,58.5,43.4,30.20,SE,124,3.0,12.0,57,0.00,CLR,SKC,0.00,WeatherDisplay:10.37,2013-03-29 16:07:00,
2013-03-29 11:12:00,59.3,43.1,30.20,ESE,119,5.0,10.0,55,0.00,CLR,SKC,0.00,WeatherDisplay:10.37,2013-03-29 16:12:00,
2013-03-29 11:17:00,59.7,43.5,30.20,ESE,105,2.0,11.0,55,0.00,CLR,SKC,0.00,WeatherDisplay:10.37,2013-03-29 16:17:00,
2013-03-29 11:22:00,60.3,43.1,30.20,SE,125,7.0,12.0,53,0.00,CLR,SKC,0.00,WeatherDisplay:10.37,2013-03-29 16:22:00,
2013-03-29 11:27:00,60.4,43.2,30.20,ESE,106,8.0,15.0,53,0.00,CLR,SKC,0.00,WeatherDisplay:10.37,2013-03-29 16:27:00,
2013-03-29 11:32:00,60.5,42.3,30.20,East,101,8.0,18.0,51,0.00,CLR,SKC,0.00,WeatherDisplay:10.37,2013-03-29 16:32:00,
2013-03-29 11:37:00,60.6,42.9,30.20,ESE,113,6.0,19.0,52,0.00,CLR,SKC,0.00,WeatherDisplay:10.37,2013-03-29 16:37:00,
2013-03-29 11:47:00,61.3,43.0,30.20,ESE,118,7.0,16.0,51,0.00,CLR,SKC,0.00,WeatherDisplay:10.37,2013-03-29 16:47:00,
2013-03-29 11:52:00,61.2,42.9,30.20,East,92,6.0,15.0,51,0.00,CLR,SKC,0.00,WeatherDisplay:10.37,2013-03-29 16:52:00,
2013-03-29 11:57:00,61.5,43.2,30.19,East,80,9.0,16.0,51,0.00,CLR,SKC,0.00,WeatherDisplay:10.37,2013-03-29 16:57:00,
2013-03-29 12:02:00,61.6,43.3,30.19,ENE,75,6.0,18.0,51,0.00,CLR,SKC,0.00,WeatherDisplay:10.37,2013-03-29 17:02:00,
2013-03-29 12:12:00,63.1,43.1,30.19,ESE,122,10.0,16.0,48,0.00,CLR,SKC,0.00,WeatherDisplay:10.37,2013-03-29 17:12:00,
2013-03-29 12:22:00,63.3,43.8,30.18,SE,136,9.0,18.0,49,0.00,CLR,SKC,0.00,WeatherDisplay:10.37,2013-03-29 17:22:00,
2013-03-29 12:27:00,63.7,44.2,30.18,SE,127,9.0,15.0,49,0.00,CLR,SKC,0.00,WeatherDisplay:10.37,2013-03-29 17:27:00,
2013-03-29 12:32:00,63.8,43.7,30.18,SE,142,7.0,15.0,48,0.00,CLR,SKC,0.00,WeatherDisplay:10.37,2013-03-29 17:32:00,
2013-03-29 12:37:00,64.2,44.1,30.18,SSE,149,5.0,15.0,48,0.00,CLR,SKC,0.00,WeatherDisplay:10.37,2013-03-29 17:37:00,
2013-03-29 12:42:00,64.2,44.6,30.18,ESE,112,6.0,16.0,49,0.00,CLR,SKC,0.00,WeatherDisplay:10.37,2013-03-29 17:42:00,
2013-03-29 12:47:00,64.9,44.7,30.18,East,94,6.0,14.0,48,0.00,CLR,SKC,0.00,WeatherDisplay:10.37,2013-03-29 17:47:00,
2013-03-29 12:57:00,65.2,43.9,30.18,SE,128,9.0,15.0,46,0.00,CLR,SKC,0.00,WeatherDisplay:10.37,2013-03-29 17:57:00,
2013-03-29 13:02:00,65.0,43.7,30.17,SE,140,7.0,18.0,46,0.00,CLR,SKC,0.00,WeatherDisplay:10.37,2013-03-29 18:02:00,
2013-03-29 13:07:00,65.4,44.1,30.17,SE,146,6.0,13.0,46,0.00,CLR,SKC,0.00,WeatherDisplay:10.37,2013-03-29 18:07:00,
2013-03-29 13:12:00,65.0,42.5,30.17,SSE,150,14.0,21.0,44,0.00,CLR,SKC,0.00,WeatherDisplay:10.37,2013-03-29 18:12:00,
2013-03-29 13:22:00,65.6,44.2,30.17,SE,141,5.0,10.0,46,0.00,CLR,SKC,0.00,WeatherDisplay:10.37,2013-03-29 18:22:00,
2013-03-29 13:27:00,66.2,42.4,30.17,SE,131,6.0,13.0,42,0.00,CLR,SKC,0.00,WeatherDisplay:10.37,2013-03-29 18:27:00,
2013-03-29 13:32:00,66.5,42.0,30.16,SE,135,7.0,12.0,41,0.00,CLR,SKC,0.00,WeatherDisplay:10.37,2013-03-29 18:32:00,
2013-03-29 13:37:00,67.0,43.7,30.16,SE,128,1.0,10.0,43,0.00,CLR,SKC,0.00,WeatherDisplay:10.37,2013-03-29 18:37:00,
2013-03-29 13:42:00,67.0,44.4,30.16,East,86,3.0,13.0,44,0.00,CLR,SKC,0.00,WeatherDisplay:10.37,2013-03-29 18:42:00,
2013-03-29 13:47:00,66.6,42.2,30.16,ESE,105,5.0,15.0,41,0.00,CLR,SKC,0.00,WeatherDisplay:10.37,2013-03-29 18:47:00,
2013-03-29 13:52:00,66.5,42.7,30.15,ENE,76,9.0,13.0,42,0.00,CLR,SKC,0.00,WeatherDisplay:10.37,2013-03-29 18:52:00,
2013-03-29 13:57:00,66.7,41.6,30.15,ENE,72,6.0,13.0,40,0.00,CLR,SKC,0.00,WeatherDisplay:10.37,2013-03-29 18:57:00,
2013-03-29 14:07:00,67.3,43.4,30.15,ESE,107,8.0,11.0,42,0.00,CLR,SKC,0.00,WeatherDisplay:10.37,2013-03-29 19:07:00,
2013-03-29 14:12:00,67.3,42.1,30.14,SSE,158,7.0,16.0,40,0.00,CLR,SKC,0.00,WeatherDisplay:10.37,2013-03-29 19:12:00,
2013-03-29 14:17:00,67.2,39.3,30.14,SE,136,9.0,18.0,36,0.00,CLR,SKC,0.00,WeatherDisplay:10.37,2013-03-29 19:17:00,
2013-03-29 14:22:00,67.4,40.9,30.14,SE,142,13.0,18.0,38,0.00,CLR,SKC,0.00,WeatherDisplay:10.37,2013-03-29 19:22:00,
2013-03-29 14:27:00,67.8,39.9,30.14,SE,136,7.0,13.0,36,0.00,CLR,SKC,0.00,WeatherDisplay:10.37,2013-03-29 19:27:00,
2013-03-29 14:32:00,67.7,40.5,30.14,ESE,111,8.0,16.0,37,0.00,CLR,SKC,0.00,WeatherDisplay:10.37,2013-03-29 19:32:00,
2013-03-29 14:37:00,68.3,42.3,30.14,ESE,121,2.0,12.0,39,0.00,CLR,SKC,0.00,WeatherDisplay:10.37,2013-03-29 19:37:00,
2013-03-29 14:42:00,68.3,41.7,30.13,ESE,120,6.0,16.0,38,0.00,CLR,SKC,0.00,WeatherDisplay:10.37,2013-03-29 19:42:00,
2013-03-29 14:47:00,68.5,42.6,30.13,ESE,112,5.0,13.0,39,0.00,CLR,SKC,0.00,WeatherDisplay:10.37,2013-03-29 19:47:00,
2013-03-29 14:52:00,68.5,41.9,30.13,ENE,76,10.0,16.0,38,0.00,CLR,SKC,0.00,WeatherDisplay:10.37,2013-03-29 19:52:00,
2013-03-29 14:57:00,68.4,39.7,30.12,ESE,121,8.0,15.0,35,0.00,CLR,SKC,0.00,WeatherDisplay:10.37,2013-03-29 19:57:00,
2013-03-29 15:02:00,68.1,41.5,30.12,SE,135,6.0,21.0,38,0.00,CLR,SKC,0.00,WeatherDisplay:10.37,2013-03-29 20:02:00,
2013-03-29 15:12:00,68.8,41.4,30.12,ESE,119,6.0,13.0,37,0.00,CLR,SKC,0.00,WeatherDisplay:10.37,2013-03-29 20:12:00,
2013-03-29 15:22:00,69.1,41.0,30.11,SE,135,9.0,21.0,36,0.00,CLR,SKC,0.00,WeatherDisplay:10.37,2013-03-29 20:22:00,
2013-03-29 15:27:00,68.8,40.0,30.11,SSE,150,9.0,18.0,35,0.00,CLR,SKC,0.00,WeatherDisplay:10.37,2013-03-29 20:27:00,
2013-03-29 15:32:00,68.8,40.0,30.11,SSE,147,12.0,18.0,35,0.00,CLR,SKC,0.00,WeatherDisplay:10.37,2013-03-29 20:32:00,
2013-03-29 15:37:00,68.7,39.9,30.11,SE,127,9.0,16.0,35,0.00,CLR,SKC,0.00,WeatherDisplay:10.37,2013-03-29 20:37:00,
2013-03-29 15:42:00,68.8,40.0,30.11,SE,125,13.0,16.0,35,0.00,CLR,SKC,0.00,WeatherDisplay:10.37,2013-03-29 20:42:00,
2013-03-29 15:47:00,68.6,40.6,30.11,SE,137,9.0,16.0,36,0.00,CLR,SKC,0.00,WeatherDisplay:10.37,2013-03-29 20:47:00,
2013-03-29 15:52:00,68.9,40.9,30.10,ESE,108,7.0,15.0,36,0.00,CLR,SKC,0.00,WeatherDisplay:10.37,2013-03-29 20:52:00,
2013-03-29 16:02:00,68.4,41.1,30.10,SE,145,8.0,18.0,37,0.00,CLR,SKC,0.00,WeatherDisplay:10.37,2013-03-29 21:02:00,
2013-03-29 16:07:00,68.6,40.5,30.10,SE,124,5.0,16.0,36,0.00,CLR,SKC,0.00,WeatherDisplay:10.37,2013-03-29 21:07:00,
2013-03-29 16:12:00,68.9,40.1,30.10,East,90,7.0,16.0,35,0.00,CLR,SKC,0.00,WeatherDisplay:10.37,2013-03-29 21:12:00,
2013-03-29 16:17:00,69.0,40.2,30.10,ESE,116,7.0,12.0,35,0.00,CLR,SKC,0.00,WeatherDisplay:10.37,2013-03-29 21:17:00,
2013-03-29 16:27:00,68.9,40.1,30.09,ESE,106,12.0,18.0,35,0.00,CLR,SKC,0.00,WeatherDisplay:10.37,2013-03-29 21:27:00,
2013-03-29 16:32:00,68.7,39.2,30.10,ESE,102,10.0,17.0,34,0.00,CLR,SKC,0.00,WeatherDisplay:10.37,2013-03-29 21:32:00,
2013-03-29 16:37:00,68.6,39.9,30.10,ESE,103,7.0,10.0,35,0.00,CLR,SKC,0.00,WeatherDisplay:10.37,2013-03-29 21:37:00,
2013-03-29 16:42:00,69.0,39.5,30.10,ESE,115,8.0,18.0,34,0.00,CLR,SKC,0.00,WeatherDisplay:10.37,2013-03-29 21:42:00,
2013-03-29 16:52:00,68.9,39.3,30.10,ESE,117,6.0,15.0,34,0.00,CLR,SKC,0.00,WeatherDisplay:10.37,2013-03-29 21:52:00,
2013-03-29 16:57:00,68.8,39.3,30.09,SE,126,6.0,13.0,34,0.00,CLR,SKC,0.00,WeatherDisplay:10.37,2013-03-29 21:57:00,
2013-03-29 17:02:00,69.2,39.6,30.09,SE,141,9.0,13.0,34,0.00,CLR,SKC,0.00,WeatherDisplay:10.37,2013-03-29 22:02:00,
2013-03-29 17:07:00,69.1,39.6,30.09,SSE,150,8.0,12.0,34,0.00,CLR,SKC,0.00,WeatherDisplay:10.37,2013-03-29 22:07:00,
2013-03-29 17:12:00,68.7,39.2,30.10,ESE,115,8.0,22.0,34,0.00,CLR,SKC,0.00,WeatherDisplay:10.37,2013-03-29 22:12:00,
2013-03-29 17:22:00,68.6,39.9,30.10,SE,138,10.0,15.0,35,0.00,CLR,SKC,0.00,WeatherDisplay:10.37,2013-03-29 22:22:00,
2013-03-29 17:27:00,68.4,38.9,30.10,SSE,161,7.0,20.0,34,0.00,CLR,SKC,0.00,WeatherDisplay:10.37,2013-03-29 22:27:00,
2013-03-29 17:32:00,68.4,38.9,30.10,SSE,151,7.0,16.0,34,0.00,CLR,SKC,0.00,WeatherDisplay:10.37,2013-03-29 22:32:00,
2013-03-29 17:42:00,67.8,38.4,30.10,SE,137,14.0,22.0,34,0.00,CLR,SKC,0.00,WeatherDisplay:10.37,2013-03-29 22:42:00,
2013-03-29 17:52:00,67.3,38.7,30.10,SE,135,9.0,20.0,35,0.00,CLR,SKC,0.00,WeatherDisplay:10.37,2013-03-29 22:52:00,
2013-03-29 18:02:00,67.0,39.1,30.10,SE,132,10.0,16.0,36,0.00,CLR,SKC,0.00,WeatherDisplay:10.37,2013-03-29 23:02:00,
2013-03-29 18:07:00,66.8,39.7,30.10,SE,135,7.0,12.0,37,0.00,CLR,SKC,0.00,WeatherDisplay:10.37,2013-03-29 23:07:00,
2013-03-29 18:12:00,66.9,40.4,30.10,SSE,150,3.0,10.0,38,0.00,CLR,SKC,0.00,WeatherDisplay:10.37,2013-03-29 23:12:00,
2013-03-29 18:22:00,66.4,40.7,30.10,SE,125,6.0,16.0,39,0.00,CLR,SKC,0.00,WeatherDisplay:10.37,2013-03-29 23:22:00,
2013-03-29 18:27:00,66.3,41.9,30.10,ESE,122,6.0,13.0,41,0.00,CLR,SKC,0.00,WeatherDisplay:10.37,2013-03-29 23:27:00,
2013-03-29 18:32:00,66.1,41.7,30.10,SE,140,7.0,15.0,41,0.00,CLR,SKC,0.00,WeatherDisplay:10.37,2013-03-29 23:32:00,
2013-03-29 18:37:00,65.9,41.5,30.10,SE,129,6.0,15.0,41,0.00,CLR,SKC,0.00,WeatherDisplay:10.37,2013-03-29 23:37:00,
2013-03-29 18:42:00,65.8,41.5,30.10,SE,128,2.0,16.0,41,0.00,CLR,SKC,0.00,WeatherDisplay:10.37,2013-03-29 23:42:00,
2013-03-29 18:47:00,65.8,40.8,30.10,SE,131,5.0,16.0,40,0.00,CLR,SKC,0.00,WeatherDisplay:10.37,2013-03-29 23:47:00,
2013-03-29 18:57:00,65.5,39.9,30.10,SE,135,6.0,15.0,39,0.00,CLR,SKC,0.00,WeatherDisplay:10.37,2013-03-29 23:57:00,
2013-03-29 19:07:00,65.2,40.3,30.10,SE,133,6.0,14.0,40,0.00,CLR,SKC,0.00,WeatherDisplay:10.37,2013-03-30 00:07:00,
2013-03-29 19:12:00,65.0,40.1,30.10,ESE,112,6.0,14.0,40,0.00,CLR,SKC,0.00,WeatherDisplay:10.37,2013-03-30 00:12:00,
2013-03-29 19:17:00,64.8,39.9,30.10,ESE,122,6.0,16.0,40,0.00,CLR,SKC,0.00,WeatherDisplay:10.37,2013-03-30 00:17:00,
2013-03-29 19:27:00,64.1,39.9,30.10,SE,139,6.0,8.0,41,0.00,CLR,SKC,0.00,WeatherDisplay:10.37,2013-03-30 00:27:00,
2013-03-29 19:32:00,63.8,39.6,30.10,ESE,122,7.0,12.0,41,0.00,CLR,SKC,0.00,WeatherDisplay:10.37,2013-03-30 00:32:00,
2013-03-29 19:37:00,63.4,39.9,30.10,ESE,109,5.0,7.0,42,0.00,CLR,SKC,0.00,WeatherDisplay:10.37,2013-03-30 00:37:00,
2013-03-29 19:42:00,63.1,39.6,30.10,ESE,110,2.0,7.0,42,0.00,CLR,SKC,0.00,WeatherDisplay:10.37,2013-03-30 00:42:00,
2013-03-29 19:47:00,62.8,39.9,30.10,ESE,122,1.0,7.0,43,0.00,CLR,SKC,0.00,WeatherDisplay:10.37,2013-03-30 00:47:00,
2013-03-29 19:52:00,62.4,39.6,30.10,ESE,120,2.0,7.0,43,0.00,CLR,SKC,0.00,WeatherDisplay:10.37,2013-03-30 00:52:00,
2013-03-29 20:02:00,61.8,39.1,30.10,SE,124,3.0,7.0,43,0.00,CLR,SKC,0.00,WeatherDisplay:10.37,2013-03-30 01:02:00,
2013-03-29 20:07:00,61.6,39.5,30.10,SE,132,3.0,10.0,44,0.00,CLR,SKC,0.00,WeatherDisplay:10.37,2013-03-30 01:07:00,
2013-03-29 20:17:00,61.1,39.6,30.11,SE,128,1.0,7.0,45,0.00,CLR,SKC,0.00,WeatherDisplay:10.37,2013-03-30 01:17:00,
2013-03-29 20:22:00,60.8,39.3,30.11,SE,136,2.0,3.0,45,0.00,CLR,SKC,0.00,WeatherDisplay:10.37,2013-03-30 01:22:00,
2013-03-29 20:27:00,60.6,39.7,30.11,SE,142,2.0,5.0,46,0.00,CLR,SKC,0.00,WeatherDisplay:10.37,2013-03-30 01:27:00,
2013-03-29 20:32:00,60.2,39.9,30.11,SE,143,0.0,2.0,47,0.00,CLR,SKC,0.00,WeatherDisplay:10.37,2013-03-30 01:32:00,
2013-03-29 20:37:00,59.6,39.4,30.11,SE,131,0.0,2.0,47,0.00,CLR,SKC,0.00,WeatherDisplay:10.37,2013-03-30 01:37:00,
2013-03-29 20:47:00,58.3,39.2,30.12,SE,129,0.0,0.0,49,0.00,CLR,SKC,0.00,WeatherDisplay:10.37,2013-03-30 01:47:00,
2013-03-29 20:52:00,57.6,39.6,30.12,SE,129,0.0,0.0,51,0.00,CLR,SKC,0.00,WeatherDisplay:10.37,2013-03-30 01:52:00,
2013-03-29 21:02:00,56.2,39.3,30.12,SE,129,0.0,0.0,53,0.00,CLR,SKC,0.00,WeatherDisplay:10.37,2013-03-30 02:02:00,
2013-03-29 21:07:00,55.5,39.1,30.12,SE,129,0.0,0.0,54,0.00,CLR,SKC,0.00,WeatherDisplay:10.37,2013-03-30 02:07:00,
2013-03-29 21:12:00,54.8,39.4,30.12,SE,129,0.0,0.0,56,0.00,CLR,SKC,0.00,WeatherDisplay:10.37,2013-03-30 02:12:00,
2013-03-29 21:17:00,54.3,39.3,30.12,SE,130,0.0,0.0,57,0.00,CLR,SKC,0.00,WeatherDisplay:10.37,2013-03-30 02:17:00,
2013-03-29 21:22:00,54.1,39.7,30.12,SE,129,0.0,0.0,58,0.00,CLR,SKC,0.00,WeatherDisplay:10.37,2013-03-30 02:22:00,
2013-03-29 21:27:00,53.9,39.4,30.11,SE,129,0.0,0.0,58,0.00,CLR,SKC,0.00,WeatherDisplay:10.37,2013-03-30 02:27:00,
2013-03-29 21:32:00,53.7,39.7,30.12,SE,129,0.0,0.0,59,0.00,CLR,SKC,0.00,WeatherDisplay:10.37,2013-03-30 02:32:00,
2013-03-29 21:42:00,53.7,39.7,30.12,SE,131,0.0,0.0,59,0.00,CLR,SKC,0.00,WeatherDisplay:10.37,2013-03-30 02:42:00,
2013-03-29 21:47:00,53.3,39.8,30.12,SE,131,0.0,0.0,60,0.00,CLR,SKC,0.00,WeatherDisplay:10.37,2013-03-30 02:47:00,
2013-03-29 21:52:00,52.9,39.8,30.12,SE,131,0.0,0.0,61,0.00,CLR,SKC,0.00,WeatherDisplay:10.37,2013-03-30 02:52:00,
2013-03-29 22:02:00,52.5,39.9,30.11,SE,131,0.0,0.0,62,0.00,CLR,SKC,0.00,WeatherDisplay:10.37,2013-03-30 03:02:00,
2013-03-29 22:07:00,52.4,39.8,30.11,SE,131,0.0,0.0,62,0.00,CLR,SKC,0.00,WeatherDisplay:10.37,2013-03-30 03:07:00,
2013-03-29 22:12:00,52.1,40.3,30.11,SE,131,0.0,0.0,64,0.00,CLR,SKC,0.00,WeatherDisplay:10.37,2013-03-30 03:12:00,
2013-03-29 22:17:00,52.0,40.2,30.11,SE,131,0.0,0.0,64,0.00,CLR,SKC,0.00,WeatherDisplay:10.37,2013-03-30 03:17:00,
2013-03-29 22:22:00,51.6,39.8,30.11,SE,131,0.0,0.0,64,0.00,CLR,SKC,0.00,WeatherDisplay:10.37,2013-03-30 03:22:00,
2013-03-29 22:32:00,50.8,40.3,30.11,SE,131,0.0,0.0,67,0.00,CLR,SKC,0.00,WeatherDisplay:10.37,2013-03-30 03:32:00,
2013-03-29 22:37:00,50.7,40.5,30.11,SE,131,0.0,0.0,68,0.00,CLR,SKC,0.00,WeatherDisplay:10.37,2013-03-30 03:37:00,
2013-03-29 22:42:00,50.6,40.8,30.11,SE,131,0.0,0.0,69,0.00,CLR,SKC,0.00,WeatherDisplay:10.37,2013-03-30 03:42:00,
2013-03-29 22:52:00,51.0,42.3,30.11,SE,130,0.0,2.0,72,0.00,CLR,SKC,0.00,WeatherDisplay:10.37,2013-03-30 03:52:00,
2013-03-29 23:02:00,51.5,42.7,30.11,SE,130,0.0,3.0,72,0.00,CLR,SKC,0.00,WeatherDisplay:10.37,2013-03-30 04:02:00,
2013-03-29 23:07:00,52.0,43.6,30.11,SE,131,1.0,5.0,73,0.00,CLR,SKC,0.00,WeatherDisplay:10.37,2013-03-30 04:07:00,
2013-03-29 23:12:00,52.4,44.4,30.11,ESE,118,1.0,5.0,74,0.00,CLR,SKC,0.00,WeatherDisplay:10.37,2013-03-30 04:12:00,
2013-03-29 23:17:00,52.8,45.1,30.10,ESE,116,1.0,5.0,75,0.00,CLR,SKC,0.00,WeatherDisplay:10.37,2013-03-30 04:17:00,
2013-03-29 23:22:00,52.9,45.6,30.10,ESE,120,0.0,3.0,76,0.00,CLR,SKC,0.00,WeatherDisplay:10.37,2013-03-30 04:22:00,
2013-03-29 23:27:00,53.1,46.1,30.10,SE,124,3.0,7.0,77,0.00,CLR,SKC,0.00,WeatherDisplay:10.37,2013-03-30 04:27:00,
2013-03-29 23:32:00,53.3,46.3,30.09,SE,127,3.0,7.0,77,0.00,CLR,SKC,0.00,WeatherDisplay:10.37,2013-03-30 04:32:00,
2013-03-29 23:37:00,53.5,46.5,30.09,SE,129,5.0,10.0,77,0.00,CLR,SKC,0.00,WeatherDisplay:10.37,2013-03-30 04:37:00,
2013-03-29 23:42:00,53.6,46.6,30.08,SE,130,5.0,10.0,77,0.00,CLR,SKC,0.00,WeatherDisplay:10.37,2013-03-30 04:42:00,
2013-03-29 23:47:00,53.6,46.9,30.08,SE,133,3.0,10.0,78,0.00,CLR,SKC,0.00,WeatherDisplay:10.37,2013-03-30 04:47:00,
2013-03-29 23:52:00,53.6,46.9,30.08,SE,132,5.0,8.0,78,0.00,CLR,SKC,0.00,WeatherDisplay:10.37,2013-03-30 04:52:00,
2013-03-29 23:57:00,53.7,47.3,30.08,SE,129,5.0,10.0,79,0.00,CLR,SKC,0.00,WeatherDisplay:10.37,2013-03-30 04:57:00,